Regional Weather Roundup
Issued by NWS

Home | Current Version | Previous Version | Text Only | Print | Product List | Glossary On
Versions: 1 2 3 4 5 6 7 8 9 10 11 12 13 14 15 16 17 18 19 20 21 22 23 24 25 26 27 28 29 30 31 32 33 34 35 36 37 38 39 40 41 42 43 44 45 46 47 48 49 50
000
ASUS43 KLMK 200102
RWRKY
KENTUCKY REGIONAL WEATHER ROUNDUP
NATIONAL WEATHER SERVICE LOUISVILLE KY
800 PM EST MON FEB 19 2018

NOTE "FAIR" INDICATES FEW OR NO CLOUDS BELOW 12,000 FEET
WITH NO SIGNIFICANT WEATHER AND/OR OBSTRUCTIONS TO VISIBILITY.

KYZ001>023-026-027-061>063-070>075-200200-
WESTERN AND SOUTH CENTRAL KENTUCKY

CITY           SKY/WX    TMP DP  RH WIND       PRES   REMARKS
PADUCAH        FAIR      69  55  60 S8        30.02R
HENDERSON      FAIR      66  56  70 S10       30.04F
OWENSBORO      FAIR      65  55  70 S10       30.07R
HOPKINSVILLE   FAIR      68  56  64 S8        30.09R
BOWLING GREEN  FAIR      68  57  68 S8        30.13R
GLASGOW        NOT AVBL
$$

KYZ024-025-028>034-038-045-046-053-200200-
NORTH CENTRAL KENTUCKY

CITY           SKY/WX    TMP DP  RH WIND       PRES   REMARKS
LOUISVILLE/SDF CLOUDY    71  54  54 S14       30.09R
LOUISVILLE/LOU FAIR      70  55  59 S15       30.09R
FORT KNOX      FAIR      67  54  63 S12       30.11R
$$

KYZ035>037-039>044-047>052-055>060-089>105-200200-
NORTHEAST KENTUCKY

CITY           SKY/WX    TMP DP  RH WIND       PRES   REMARKS
LEXINGTON      FAIR      65  53  65 S12       30.14S
COVINGTON      FAIR      68  55  63 S13G23    30.08R
FRANKFORT      FAIR      67  54  63 S7        30.11R
$$

KYZ054-064>069-076>088-106>120-200200-
SOUTHEAST KENTUCKY

CITY           SKY/WX    TMP DP  RH WIND       PRES   REMARKS
JACKSON        FAIR      65  53  65 SW5       30.21S
LONDON         FAIR      63  53  70 S3        30.21S
SOMERSET       NOT AVBL
MIDDLESBORO    MOCLDY    59  56  90 CALM      30.25S
MONTICELLO     NOT AVBL
$$





USA.gov is the U.S. government's official web portal to all federal, state and local government web resources and services.